Tracking 35274 objects as of 10-Sep-2026
HD Live streaming from Space Station
objects crossing your sky now

SL-12 DEB


SL-12 DEB is no longer on orbit


NORAD ID: 45035
Int'l Code: 2009-070N
Launch date: December 14, 2009
Source: Commonwealth of Independent States (former USSR) (CIS)
Launch site: TYURATAM MISSILE AND SPACE COMPLEX (TTMTR)
Decay date: 2023-09-22

Note: This is SATELLITE DEBRIS
Your satellite tracking list
Your tracking list is empty




NASA's NSSDC Master Catalog

Two Line Element Set (TLE):
1 45035U 09070N   23262.40689756  .44369901  88466-5  52166-1 0  9997
2 45035  63.9072 186.6290 0114001 312.7463  46.4140 15.96324477 79947
Source of the keplerian elements: AFSPC